Location: Allison Elementary School
(34.0784°N, 117.7317°W)
Time: 04:52:40
(UTC+00:00)

NOSS 2-3 (E) - Pass Details

Date: 15 November 2019
Orbit: 595 x 1616 km, 63.4° (Epoch: 03 December)

Event Time Altitude Azimuth Distance (km) Brightness Sun altitude
Rises 01:51:37 0° 206° (SSW) 2,824 7.6 -13.4°
Reaches altitude 10° 01:53:48 10° 205° (SSW) 1,920 6.6 -13.9°
Maximum altitude 01:58:00 78° 119° (ESE) 633 3.5 -14.7°
Enters shadow 02:01:41 16° 34° (NE) 1,732 5.4 -15.5°
